| time (UTC) | temp F | wind direction | speed MPH | gust MPH | rain 1hr in | rain 24hr in | rain mn in | humidity % | barometer mb |
| 20260902163102 | 80 | 245 | 0.0 | 5.0 | 0.00 | 0.01 | 0.01 | 64 | 1013.4 |
| 20260902161549 | 79 | 91 | 0.0 | 3.0 | 0.00 | 0.01 | 0.01 | 61 | 1013.0 |
| 20260902160047 | 77 | 48 | 0.0 | 0.0 | 0.00 | 0.01 | 0.01 | 68 | 1012.8 |
| 20260902154546 | 78 | 79 | 0.0 | 0.0 | 0.00 | 0.01 | 0.01 | 67 | 1012.7 |
| 20260902153041 | 76 | 107 | 0.0 | 0.0 | 0.00 | 0.01 | 0.01 | 72 | 1012.7 |
| 20260902151548 | 76 | 210 | 0.0 | 0.0 | 0.00 | 0.01 | 0.01 | 73 | 1012.8 |
| 20260902150037 | 75 | 72 | 0.0 | 0.0 | 0.00 | 0.01 | 0.01 | 75 | 1012.6 |
| 20260902144539 | 73 | 89 | 0.0 | 0.0 | 0.00 | 0.01 | 0.01 | 77 | 1012.7 |
| 20260902143030 | 71 | 87 | 0.0 | 0.0 | 0.00 | 0.01 | 0.01 | 78 | 1012.8 |
| 20260902141526 | 70 | 87 | 0.0 | 0.0 | 0.00 | 0.01 | 0.01 | 81 | 1012.9 |
| 20260902140023 | 69 | 77 | 0.0 | 0.0 | 0.00 | 0.01 | 0.01 | 82 | 1013.0 |
| 20260902134522 | 69 | 103 | 0.0 | 0.0 | 0.00 | 0.01 | 0.01 | 83 | 1013.2 |
| 20260902133021 | 68 | 74 | 0.0 | 0.0 | 0.00 | 0.01 | 0.01 | 86 | 1013.1 |
| 20260902131521 | 66 | 81 | 0.0 | 0.0 | 0.00 | 0.01 | 0.01 | 89 | 1013.1 |
| 20260902130019 | 66 | 74 | 0.0 | 0.0 | 0.00 | 0.01 | 0.01 | 89 | 1013.1 |
| 20260902124519 | 66 | 89 | 0.0 | 0.0 | 0.00 | 0.01 | 0.01 | 89 | 1013.2 |
| 20260902123022 | 66 | 94 | 0.0 | 0.0 | 0.00 | 0.01 | 0.01 | 89 | 1013.0 |
| 20260902121517 | 65 | 127 | 0.0 | 0.0 | 0.00 | 0.01 | 0.01 | 90 | 1013.4 |
| 20260902120017 | 65 | 150 | 0.0 | 0.0 | 0.00 | 0.01 | 0.01 | 90 | 1013.4 |
| 20260902114518 | 65 | 98 | 1.0 | 4.0 | 0.00 | 0.01 | 0.01 | 90 | 1013.5 |
| 20260902113016 | 65 | 250 | 0.0 | 5.0 | 0.00 | 0.01 | 0.01 | 92 | 1013.5 |
| 20260902111522 | 65 | 184 | 0.0 | 0.0 | 0.00 | 0.01 | 0.01 | 92 | 1013.6 |
| 20260902110020 | 65 | 203 | 0.0 | 0.0 | 0.00 | 0.01 | 0.01 | 92 | 1013.5 |
| 20260902104518 | 65 | 249 | 0.0 | 2.0 | 0.00 | 0.01 | 0.01 | 93 | 1013.3 |
| 20260902103014 | 65 | 136 | 0.0 | 4.0 | 0.00 | 0.01 | 0.01 | 94 | 1013.4 |
| 20260902101513 | 64 | 107 | 0.0 | 0.0 | 0.00 | 0.01 | 0.01 | 95 | 1013.0 |
| 20260902100013 | 64 | 77 | 0.0 | 0.0 | 0.00 | 0.01 | 0.01 | 95 | 1012.6 |
| 20260902094511 | 65 | 77 | 0.0 | 0.0 | 0.00 | 0.01 | 0.01 | 95 | 1011.8 |
| 20260902093011 | 65 | 105 | 0.0 | 0.0 | 0.00 | 0.01 | 0.01 | 96 | 1011.5 |
| 20260902091507 | 65 | 84 | 0.0 | 0.0 | 0.00 | 0.01 | 0.01 | 96 | 1012.1 |
| 20260902090007 | 65 | 102 | 0.0 | 0.0 | 0.00 | 0.01 | 0.01 | 96 | 1012.0 |
| 20260902084505 | 65 | 124 | 0.0 | 0.0 | 0.01 | 0.01 | 0.01 | 96 | 1012.5 |
| 20260902083003 | 65 | 99 | 0.0 | 0.0 | 0.01 | 0.01 | 0.01 | 96 | 1012.9 |
| 20260902081503 | 65 | 81 | 0.0 | 0.0 | 0.01 | 0.01 | 0.01 | 96 | 1012.6 |
| 20260902080002 | 65 | 104 | 0.0 | 0.0 | 0.01 | 0.01 | 0.01 | 95 | 1012.8 |
| 20260902074502 | 66 | 110 | 0.0 | 9.0 | 0.00 | 0.00 | 0.00 | 95 | 1012.6 |
| 20260902073001 | 65 | 115 | 1.0 | 7.0 | 0.00 | 0.00 | 0.00 | 95 | 1013.5 |
| 20260902071559 | 65 | 129 | 0.0 | 2.0 | 0.00 | 0.00 | 0.00 | 94 | 1013.7 |
| 20260902070055 | 67 | 122 | 0.0 | 0.0 | 0.00 | 0.00 | 0.00 | 86 | 1014.1 |
| 20260902064555 | 68 | 122 | 0.0 | 0.0 | 0.00 | 0.00 | 0.00 | 83 | 1014.2 |
| 20260902063059 | 68 | 122 | 0.0 | 0.0 | 0.00 | 0.00 | 0.00 | 83 | 1013.9 |
| 20260902061553 | 69 | 122 | 0.0 | 0.0 | 0.00 | 0.00 | 0.00 | 82 | 1013.2 |
| 20260902060050 | 68 | 85 | 0.0 | 0.0 | 0.00 | 0.00 | 0.00 | 84 | 1012.4 |
| 20260902054548 | 67 | 68 | 0.0 | 0.0 | 0.00 | 0.00 | 0.00 | 85 | 1013.0 |
| 20260902053043 | 67 | 69 | 0.0 | 0.0 | 0.00 | 0.00 | 0.00 | 85 | 1013.4 |
| 20260902051545 | 67 | 68 | 0.0 | 0.0 | 0.00 | 0.00 | 0.00 | 84 | 1013.5 |
| 20260902050056 | 68 | 68 | 0.0 | 0.0 | 0.00 | 0.00 | 0.00 | 83 | 1013.2 |
| 20260902044538 | 68 | 68 | 0.0 | 0.0 | 0.00 | 0.00 | 0.00 | 81 | 1013.0 |
| 20260902043044 | 68 | 68 | 0.0 | 0.0 | 0.00 | 0.00 | 0.00 | 83 | 1012.8 |
| 20260902041537 | 68 | 69 | 0.0 | 0.0 | 0.00 | 0.00 | 0.00 | 83 | 1012.7 |
| 20260902040038 | 68 | 45 | 0.0 | 0.0 | 0.00 | 0.00 | 0.00 | 82 | 1012.7 |
| 20260902034536 | 68 | 45 | 0.0 | 0.0 | 0.00 | 0.00 | 0.00 | 79 | 1013.1 |
| 20260902033035 | 69 | 45 | 0.0 | 0.0 | 0.00 | 0.00 | 0.00 | 77 | 1013.4 |
| 20260902031534 | 70 | 45 | 0.0 | 0.0 | 0.00 | 0.00 | 0.00 | 74 | 1013.4 |
| 20260902030034 | 71 | 45 | 0.0 | 0.0 | 0.00 | 0.00 | 0.00 | 74 | 1013.3 |
| 20260902024539 | 71 | 45 | 0.0 | 0.0 | 0.00 | 0.00 | 0.00 | 70 | 1013.2 |
| 20260902023033 | 72 | 45 | 0.0 | 0.0 | 0.00 | 0.00 | 0.00 | 70 | 1013.1 |
| 20260902021532 | 73 | 45 | 0.0 | 0.0 | 0.00 | 0.00 | 0.00 | 67 | 1013.2 |
| 20260902020031 | 74 | 45 | 0.0 | 0.0 | 0.00 | 0.00 | 0.00 | 64 | 1013.2 |
| 20260902014531 | 75 | 45 | 0.0 | 0.0 | 0.00 | 0.00 | 0.00 | 62 | 1012.9 |
| 20260902013035 | 76 | 45 | 0.0 | 0.0 | 0.00 | 0.00 | 0.00 | 61 | 1012.9 |
| 20260902011534 | 77 | 45 | 0.0 | 0.0 | 0.00 | 0.00 | 0.00 | 59 | 1012.7 |
| 20260902010030 | 77 | 252 | 0.0 | 0.0 | 0.00 | 0.00 | 0.00 | 57 | 1012.6 |
| 20260902004528 | 78 | 252 | 0.0 | 0.0 | 0.00 | 0.00 | 0.00 | 55 | 1012.8 |
| 20260902003029 | 79 | 252 | 0.0 | 0.0 | 0.00 | 0.00 | 0.00 | 53 | 1012.6 |
| 20260902001527 | 80 | 252 | 0.0 | 0.0 | 0.00 | 0.00 | 0.00 | 52 | 1012.8 |
| 20260902000027 | 81 | 259 | 0.0 | 0.0 | 0.00 | 0.00 | 0.00 | 51 | 1012.8 |
| 20260901234526 | 81 | 259 | 0.0 | 0.0 | 0.00 | 0.00 | 0.00 | 48 | 1013.0 |
| 20260901233025 | 82 | 226 | 0.0 | 0.0 | 0.00 | 0.00 | 0.00 | 47 | 1013.0 |
| 20260901231528 | 83 | 237 | 0.0 | 0.0 | 0.00 | 0.00 | 0.00 | 47 | 1012.8 |
| 20260901230025 | 83 | 267 | 0.0 | 0.0 | 0.00 | 0.00 | 0.00 | 50 | 1012.8 |
| 20260901224533 | 84 | 265 | 0.0 | 0.0 | 0.00 | 0.00 | 0.00 | 50 | 1012.6 |
| 20260901223024 | 85 | 265 | 0.0 | 0.0 | 0.00 | 0.00 | 0.00 | 46 | 1012.5 |
| 20260901221523 | 84 | 265 | 0.0 | 0.0 | 0.00 | 0.00 | 0.00 | 48 | 1012.7 |
| 20260901220026 | 85 | 226 | 0.0 | 0.0 | 0.00 | 0.00 | 0.00 | 51 | 1012.5 |
| 20260901214522 | 85 | 227 | 0.0 | 0.0 | 0.00 | 0.00 | 0.00 | 44 | 1012.3 |
| 20260901213039 | 87 | 268 | 0.0 | 0.0 | 0.00 | 0.00 | 0.00 | 41 | 1012.4 |
| 20260901211522 | 88 | 226 | 0.0 | 1.0 | 0.00 | 0.00 | 0.00 | 41 | 1012.1 |
| 20260901210025 | 87 | 334 | 0.0 | 1.0 | 0.00 | 0.00 | 0.00 | 38 | 1012.5 |
| 20260901204528 | 88 | 288 | 0.0 | 2.0 | 0.00 | 0.00 | 0.00 | 38 | 1012.7 |
| 20260901203024 | 89 | 170 | 0.0 | 0.0 | 0.00 | 0.00 | 0.00 | 39 | 1012.8 |
| 20260901201514 | 89 | 124 | 0.0 | 0.0 | 0.00 | 0.00 | 0.00 | 41 | 1012.8 |
| 20260901200013 | 87 | 260 | 0.0 | 0.0 | 0.00 | 0.00 | 0.00 | 45 | 1013.0 |
| 20260901194512 | 87 | 243 | 0.0 | 0.0 | 0.00 | 0.00 | 0.00 | 44 | 1013.0 |
| 20260901193014 | 88 | 236 | 0.0 | 0.0 | 0.00 | 0.00 | 0.00 | 43 | 1013.1 |
| 20260901191510 | 87 | 298 | 0.0 | 0.0 | 0.00 | 0.00 | 0.00 | 45 | 1013.2 |
| 20260901190009 | 87 | 86 | 0.0 | 0.0 | 0.00 | 0.00 | 0.00 | 45 | 1013.3 |
| 20260901184520 | 87 | 251 | 0.0 | 0.0 | 0.00 | 0.00 | 0.00 | 48 | 1013.3 |
| 20260901183006 | 86 | 233 | 0.0 | 0.0 | 0.00 | 0.00 | 0.00 | 50 | 1013.6 |
| 20260901181506 | 86 | 258 | 0.0 | 0.0 | 0.00 | 0.00 | 0.00 | 49 | 1013.8 |
| 20260901180002 | 85 | 79 | 0.0 | 0.0 | 0.00 | 0.00 | 0.00 | 48 | 1013.9 |
| 20260901174602 | 84 | 223 | 0.0 | 3.0 | 0.00 | 0.00 | 0.00 | 51 | 1014.1 |
| 20260901174501 | 84 | 310 | 0.0 | 3.0 | 0.00 | 0.00 | 0.00 | 52 | 1014.1 |
| 20260901173100 | 83 | 278 | 0.0 | 4.0 | 0.00 | 0.00 | 0.00 | 46 | 1014.2 |
| 20260901171607 | 84 | 50 | 0.0 | 0.0 | 0.00 | 0.00 | 0.00 | 50 | 1014.2 |
| 20260901170059 | 83 | 105 | 0.0 | 0.0 | 0.00 | 0.00 | 0.00 | 55 | 1014.3 |
| 20260901164556 | 82 | 252 | 0.0 | 0.0 | 0.00 | 0.00 | 0.00 | 58 | 1014.1 |